CZ-10B DEB, 69973

Orbit data source: Space-Track

CZ-10B DEB, 69973 is space debris in LEO originally from a launch on Fri, 10 Jul 2026 UTC launched from the Wenchang Satellite Launch Center (WSC). Debris objects in space refer to the collection of defunct objects orbiting the Earth. Examples of debris include non-operational satellites, rocket bodies, and fragments generated from explosions, collisions, or faulty payload assembly.

Loading next visibility...
Identifier
69973, 2026-158B
Orbit
LEO
Country
Flag of CNCN / PRC
Related business
Manufacturer
SECM
Mission
Spacecraft
Bus & Motor
Unknown
Mass
~100 kg wet, ~100 kg dry
Launch date (UTC)
2026-07-10 (1 month ago)
Launch vehicle
Unknown
Launch site
Wenchang Satellite Launch Center (WSC)
Object type
Payload
Rocket body
Debris
Shape & HBR
CONE?, 1.1 m
Radar Cross Section
Large (>1 m²)

Expand to show TLE details & history
Last TLE update: 1 day ago

TLE from 1 day ago
0 CZ-10B DEB
1 69973U 26158B   26228.03842303  .00000442  00000-0  25576-3 0  9997
2 69973  49.9834 146.0861 0006092  62.1514 298.0016 14.24912929  5245
Epoch: 2026-08-16T00:55Z
TLE epoch observation values (Epoch: 2026-08-16T00:55:19.749Z)
Latitude
-0.00002°
Longitude
167.81311°
Altitude
807.26 km
Speed
7.452 km/s
True Right ascension
09h 44m 20s
True Declination
0° 00' 00"
Sunlit
Object was in daylight at epoch
Visualization orbit readout
Latitude
Unknown
Longitude
Unknown
Altitude
Unknown
Speed
Unknown
Apparent Right ascension
Unknown
Apparent Declination
Unknown
Sunlit
N/A
Visualization observer readout
Local Sidereal Time
15:57:22
Azimuth
Unknown
Elevation
Unknown
Doppler factor
Unknown
Orbital elements
Apogee altitude
813.905 km
Perigee altitude
805.148 km
Semi-major axis
7,187.663 km
Eccentricity
0.00061
Inclination
49.9834°
RAAN
146.0861°
Arg. of periapsis
62.1514°
True anomaly
297.93994°
Mean anomaly
298.0016°
Eccentric anomaly
297.97077°
Mean motion
3.56173 °/min
Orbital period
101.07 mins
BSTAR
0.00025576
Loading maneuver chart data...
Computing Atmospheric mass density...
Loading historical data...
Loading historical data...
Loading historical data...
Loading historical data...
Loading historical data...
Loading historical data...
Loading historical data...
Other satellites on launch #158 in the year 2026 (2026-07-10 UTC)

Documentation

Showing up to 5 results
|